When you browse on this site, cookies collect data to enhance your experience and personalize the content and advertising you see.
Visit our Privacy Policy to learn more. By continuing to use the site, you agree to this use of cookies and data.
  • In Czech Republic
  • List of Countries
  • For 7 days
  • Water Temperature
  • Satellite Maps
  • Weather Map
  • Weather Widgets
  • user-avatar
    Login

    Hourly Weather Kobetey

    Today, 21 November, Wednesday

    Time Temperature Precipitation Wind Pressure Humidity
    00:00 -8°C° 0.1 mm 3 mps 730 mmHg 96%
    01:00 -8°C° 0.1 mm 3 mps 729 mmHg 96%
    02:00 -8°C° 0.1 mm 3 mps 729 mmHg 96%
    03:00 -8°C° 0.1 mm 3 mps 729 mmHg 96%
    04:00 -9°C° 0.1 mm 4 mps 729 mmHg 96%
    05:00 -9°C° 0 mm 4 mps 729 mmHg 96%
    06:00 -8°C° 0.1 mm 4 mps 729 mmHg 96%
    07:00 -8°C° 0.1 mm 4 mps 730 mmHg 96%
    08:00 -8°C° 0.1 mm 4 mps 730 mmHg 96%
    09:00 -8°C° 0 mm 5 mps 730 mmHg 94%
    10:00 -7°C° 0 mm 5 mps 729 mmHg 93%
    11:00 -7°C° 0 mm 5 mps 729 mmHg 92%
    12:00 -7°C° 0 mm 5 mps 729 mmHg 91%
    13:00 -7°C° 0 mm 5 mps 729 mmHg 89%
    14:00 -7°C° 0 mm 5 mps 728 mmHg 88%
    15:00 -8°C° 0 mm 5 mps 728 mmHg 90%
    16:00 -8°C° 0 mm 5 mps 728 mmHg 91%
    17:00 -10°C° 0 mm 5 mps 727 mmHg 93%
    18:00 -10°C° 0 mm 5 mps 727 mmHg 93%
    19:00 -8°C° 0 mm 5 mps 726 mmHg 93%
    20:00 -8°C° 0 mm 5 mps 726 mmHg 93%
    21:00 -8°C° 0.2 mm 5 mps 725 mmHg 94%
    22:00 -7°C° 0.2 mm 5 mps 725 mmHg 94%
    23:00 -7°C° 0.2 mm 5 mps 724 mmHg 94%

    Tomorrow, 22 November, Thursday

    Time Temperature Precipitation Wind Pressure Humidity
    00:00 -8°C° 0.3 mm 6 mps 723 mmHg 94%
    01:00 -6°C° 0.3 mm 6 mps 723 mmHg 94%
    02:00 -6°C° 0.3 mm 6 mps 722 mmHg 94%
    03:00 -6°C° 0.2 mm 6 mps 721 mmHg 94%
    04:00 -6°C° 0.2 mm 6 mps 721 mmHg 93%
    05:00 -6°C° 0.2 mm 6 mps 720 mmHg 93%
    06:00 -7°C° 0.1 mm 7 mps 720 mmHg 93%
    07:00 -7°C° 0.1 mm 7 mps 719 mmHg 92%
    08:00 -7°C° 0.1 mm 7 mps 719 mmHg 92%
    09:00 -6°C° 0.1 mm 8 mps 718 mmHg 92%
    10:00 -6°C° 0.1 mm 8 mps 717 mmHg 91%
    11:00 -5°C° 0.1 mm 9 mps 717 mmHg 91%
    12:00 -5°C° 0.5 mm 9 mps 716 mmHg 90%
    13:00 -4°C° 0.5 mm 9 mps 716 mmHg 90%
    14:00 -3°C° 0.5 mm 10 mps 715 mmHg 90%
    15:00 -3°C° 0.3 mm 9 mps 715 mmHg 90%
    16:00 -2°C° 0.3 mm 8 mps 716 mmHg 90%
    17:00 -2°C° 0.3 mm 8 mps 716 mmHg 90%
    18:00 -5°C° 0.1 mm 8 mps 717 mmHg 90%
    19:00 -6°C° 0.1 mm 7 mps 717 mmHg 90%
    20:00 -7°C° 0.1 mm 7 mps 718 mmHg 90%
    21:00 -8°C° 0 mm 7 mps 718 mmHg 90%
    22:00 -8°C° 0 mm 7 mps 719 mmHg 90%
    23:00 -9°C° 0 mm 7 mps 720 mmHg 90%

    Day after tomorrow, 23 November, Friday

    Time Temperature Precipitation Wind Pressure Humidity
    00:00 -9°C° 0.1 mm 7 mps 720 mmHg 89%
    01:00 -9°C° 0.1 mm 7 mps 721 mmHg 89%
    02:00 -9°C° 0.1 mm 7 mps 721 mmHg 89%
    03:00 -9°C° 0 mm 7 mps 722 mmHg 90%
    04:00 -10°C° 0 mm 6 mps 722 mmHg 91%
    05:00 -10°C° 0 mm 5 mps 723 mmHg 92%
    06:00 -10°C° 0 mm 5 mps 723 mmHg 93%
    07:00 -10°C° 0 mm 4 mps 723 mmHg 93%
    08:00 -10°C° 0 mm 4 mps 723 mmHg 94%
    09:00 -9°C° 0.1 mm 4 mps 723 mmHg 94%
    10:00 -8°C° 0.1 mm 3 mps 723 mmHg 94%
    11:00 -7°C° 0.1 mm 3 mps 723 mmHg 94%
    12:00 -6°C° 0.3 mm 3 mps 723 mmHg 93%
    13:00 -6°C° 0.3 mm 3 mps 723 mmHg 93%
    14:00 -5°C° 0.3 mm 3 mps 722 mmHg 93%
    15:00 -5°C° 0.2 mm 3 mps 722 mmHg 93%
    16:00 -5°C° 0.2 mm 3 mps 722 mmHg 94%
    17:00 -5°C° 0.2 mm 3 mps 722 mmHg 94%
    18:00 -5°C° 0.3 mm 3 mps 722 mmHg 95%
    19:00 -5°C° 0.3 mm 4 mps 721 mmHg 95%
    20:00 -5°C° 0.3 mm 4 mps 721 mmHg 95%
    21:00 -5°C° 0.3 mm 4 mps 721 mmHg 95%
    22:00 -7°C° 0.3 mm 4 mps 721 mmHg 95%
    23:00 -7°C° 0.3 mm 4 mps 720 mmHg 95%

    24 November, Saturday

    Time Temperature Precipitation Wind Pressure Humidity
    00:00 -6°C° 0.5 mm 5 mps 720 mmHg 95%
    01:00 -6°C° 0.5 mm 5 mps 719 mmHg 94%
    02:00 -6°C° 0.5 mm 5 mps 719 mmHg 94%
    03:00 -6°C° 0.6 mm 5 mps 718 mmHg 94%
    04:00 -6°C° 0.6 mm 5 mps 717 mmHg 95%
    05:00 -6°C° 0.6 mm 5 mps 716 mmHg 95%
    06:00 -6°C° 0.4 mm 5 mps 716 mmHg 95%
    07:00 -5°C° 0.4 mm 4 mps 715 mmHg 95%
    08:00 -5°C° 0.4 mm 4 mps 714 mmHg 94%
    09:00 -7°C° 0.3 mm 7 mps 713 mmHg 91%
    10:00 -8°C° 0.3 mm 9 mps 713 mmHg 88%
    11:00 -8°C° 0.3 mm 11 mps 713 mmHg 85%
    12:00 -12°C° 0.1 mm 11 mps 713 mmHg 84%
    13:00 -14°C° 0.1 mm 11 mps 714 mmHg 84%
    14:00 -17°C° 0.1 mm 12 mps 715 mmHg 83%
    15:00 -17°C° 0.2 mm 12 mps 716 mmHg 85%
    16:00 -16°C° 0.2 mm 12 mps 718 mmHg 87%
    17:00 -16°C° 0.2 mm 12 mps 719 mmHg 89%
    18:00 -14°C° 0.1 mm 11 mps 721 mmHg 87%
    19:00 -14°C° 0.1 mm 9 mps 723 mmHg 86%
    20:00 -13°C° 0.1 mm 8 mps 725 mmHg 85%
    21:00 -14°C° 0.1 mm 9 mps 727 mmHg 86%
    22:00 -14°C° 0.1 mm 9 mps 729 mmHg 86%
    23:00 -15°C° 0.1 mm 9 mps 730 mmHg 87%

    25 November, Sunday

    Time Temperature Precipitation Wind Pressure Humidity
    00:00 -16°C° 0 mm 9 mps 732 mmHg 87%
    01:00 -17°C° 0 mm 8 mps 733 mmHg 87%
    02:00 -18°C° 0 mm 7 mps 735 mmHg 88%
    03:00 -19°C° 0 mm 7 mps 735 mmHg 87%
    04:00 -20°C° 0 mm 7 mps 736 mmHg 87%
    05:00 -20°C° 0 mm 7 mps 737 mmHg 86%
    06:00 -20°C° 0 mm 7 mps 737 mmHg 85%
    07:00 -21°C° 0 mm 8 mps 737 mmHg 83%
    08:00 -21°C° 0 mm 8 mps 737 mmHg 82%
    09:00 -20°C° 0 mm 9 mps 737 mmHg 81%
    10:00 -19°C° 0 mm 10 mps 737 mmHg 80%
    11:00 -18°C° 0 mm 10 mps 736 mmHg 79%
    12:00 -17°C° 0 mm 10 mps 736 mmHg 78%
    13:00 -17°C° 0 mm 11 mps 736 mmHg 78%
    14:00 -16°C° 0 mm 11 mps 735 mmHg 77%
    15:00 -16°C° 0 mm 11 mps 735 mmHg 78%
    16:00 -17°C° 0 mm 10 mps 735 mmHg 79%
    17:00 -17°C° 0 mm 10 mps 735 mmHg 80%
    18:00 -17°C° 0 mm 10 mps 734 mmHg 80%
    19:00 -17°C° 0 mm 10 mps 734 mmHg 80%
    20:00 -17°C° 0 mm 10 mps 734 mmHg 81%
    21:00 -16°C° 0 mm 9 mps 734 mmHg 81%
    22:00 -16°C° 0 mm 9 mps 733 mmHg 81%
    23:00 -16°C° 0 mm 9 mps 733 mmHg 82%

    26 November, Monday

    Time Temperature Precipitation Wind Pressure Humidity
    00:00 -17°C° 0 mm 9 mps 733 mmHg 82%
    01:00 -17°C° 0 mm 9 mps 733 mmHg 83%
    02:00 -17°C° 0 mm 8 mps 733 mmHg 84%
    03:00 -17°C° 0 mm 8 mps 733 mmHg 85%
    04:00 -17°C° 0 mm 7 mps 733 mmHg 86%
    05:00 -17°C° 0 mm 6 mps 733 mmHg 88%
    06:00 -17°C° 0 mm 6 mps 733 mmHg 89%
    07:00 -17°C° 0 mm 5 mps 733 mmHg 90%
    08:00 -17°C° 0 mm 5 mps 734 mmHg 91%
    09:00 -17°C° 0 mm 5 mps 734 mmHg 91%
    10:00 -17°C° 0 mm 5 mps 734 mmHg 91%
    11:00 -15°C° 0 mm 4 mps 734 mmHg 91%
    12:00 -15°C° 0 mm 4 mps 734 mmHg 92%
    13:00 -14°C° 0 mm 3 mps 734 mmHg 93%
    14:00 -14°C° 0 mm 3 mps 734 mmHg 93%
    15:00 -15°C° 0 mm 3 mps 734 mmHg 93%
    16:00 -15°C° 0 mm 3 mps 734 mmHg 93%
    17:00 -15°C° 0 mm 2 mps 733 mmHg 93%
    18:00 -16°C° 0 mm 2 mps 733 mmHg 93%
    19:00 -16°C° 0 mm 2 mps 733 mmHg 92%
    20:00 -16°C° 0 mm 2 mps 733 mmHg 92%
    21:00 -16°C° 0 mm 2 mps 733 mmHg 91%
    22:00 -17°C° 0 mm 2 mps 733 mmHg 90%
    23:00 -17°C° 0 mm 2 mps 733 mmHg 90%
    Show more